VIR990 EGCC-KLAX

Flight info

Callsign VIR990
Flight time N/A
Altitude 32000
Route ASMIM L975 WAL L10 PENIL M144 BAGSO DCT REVNU DCT PIKIL/M084F340 DCT 57N020W 57N030W 57N040W 56N050W DCT JANJO/N0483F340 DCT DENSO/N0484F360 DCT AGLOL DCT MERNU DCT XEXUL DCT BLUOX/N0479F380 DCT RAP J158 DDY J107 NORRA J100 LAS Q70 HAILO DCT KOPLE BOGET2
Aircraft A346/H-SDE2E3FGHIJ3J4J5M1RWXY/LB1D1

Departure

Time N/A
Airport Manchester Airport (EGCC)

Arrival

Time 2026-05-04 18:59
Airport Los Angeles International Airport (KLAX)
Time Latitude Longitude Altitude Speed Heading
2026-05-04 17:34 39.53674 -111.61894 38019 ft 408 kts 225°
2026-05-04 17:34 39.51540 -111.64470 38016 ft 408 kts 225°
2026-05-04 17:35 39.41176 -111.76957 38001 ft 407 kts 227°
2026-05-04 17:36 39.37049 -111.81943 38050 ft 404 kts 227°
2026-05-04 17:36 39.32963 -111.86877 38049 ft 405 kts 227°
2026-05-04 17:37 39.28841 -111.91836 38052 ft 405 kts 227°
2026-05-04 17:37 39.24697 -111.96818 38048 ft 405 kts 228°
2026-05-04 17:38 39.20586 -112.01753 38050 ft 404 kts 227°
2026-05-04 17:38 39.16479 -112.06673 38047 ft 405 kts 227°
2026-05-04 17:39 39.10293 -112.14038 38048 ft 404 kts 227°
2026-05-04 17:39 39.06174 -112.18922 38039 ft 404 kts 227°
2026-05-04 17:40 39.02050 -112.23819 38027 ft 405 kts 227°
2026-05-04 17:40 38.97897 -112.28748 38017 ft 405 kts 226°
2026-05-04 17:41 38.93745 -112.33657 38023 ft 402 kts 227°
2026-05-04 17:41 38.89635 -112.38520 38025 ft 402 kts 227°
2026-05-04 17:42 38.85529 -112.43366 38025 ft 401 kts 227°
2026-05-04 17:42 38.81430 -112.48201 38033 ft 399 kts 227°
2026-05-04 17:43 38.77354 -112.53004 38036 ft 399 kts 227°
2026-05-04 17:43 38.73283 -112.57787 38040 ft 397 kts 227°
2026-05-04 17:44 38.69223 -112.62550 38057 ft 393 kts 227°
2026-05-04 17:44 38.65188 -112.67278 38057 ft 393 kts 227°
2026-05-04 17:45 38.61173 -112.71970 38061 ft 392 kts 227°
2026-05-04 17:45 38.57163 -112.76661 38058 ft 391 kts 226°
2026-05-04 17:46 38.53122 -112.81377 38366 ft 392 kts 226°
2026-05-04 17:46 38.51112 -112.83714 38840 ft 388 kts 227°
2026-05-04 17:46 38.49134 -112.86020 39219 ft 386 kts 227°
2026-05-04 17:47 38.47144 -112.88339 39477 ft 385 kts 227°
2026-05-04 17:47 38.45182 -112.90621 39595 ft 388 kts 227°
2026-05-04 17:47 38.43191 -112.92939 39727 ft 389 kts 227°
2026-05-04 17:47 38.41175 -112.95281 39965 ft 388 kts 226°
2026-05-04 17:48 38.37101 -112.99762 39992 ft 390 kts 223°
2026-05-04 17:48 38.32706 -113.03840 39997 ft 392 kts 219°
2026-05-04 17:49 38.28133 -113.07572 40012 ft 390 kts 219°
2026-05-04 17:49 38.23581 -113.11304 40024 ft 389 kts 219°
2026-05-04 17:50 38.19032 -113.15005 40032 ft 387 kts 219°
2026-05-04 17:50 38.14526 -113.18665 40042 ft 384 kts 219°
2026-05-04 17:51 38.10035 -113.22307 40040 ft 385 kts 220°
2026-05-04 17:51 38.05562 -113.25926 40050 ft 381 kts 219°
2026-05-04 17:52 38.01099 -113.29532 40042 ft 380 kts 220°
2026-05-04 17:52 37.96644 -113.33137 40039 ft 379 kts 220°
2026-05-04 17:53 37.92223 -113.36700 40041 ft 377 kts 220°
2026-05-04 17:53 37.87772 -113.40266 40041 ft 377 kts 220°
2026-05-04 17:54 37.83344 -113.43781 40043 ft 377 kts 220°
2026-05-04 17:54 37.78903 -113.47313 40041 ft 376 kts 220°
2026-05-04 17:55 37.74488 -113.50816 40041 ft 376 kts 220°
2026-05-04 17:55 37.70069 -113.54324 40041 ft 376 kts 220°
2026-05-04 17:56 37.65642 -113.57841 40051 ft 376 kts 220°
2026-05-04 17:56 37.61243 -113.61326 40056 ft 376 kts 219°
2026-05-04 17:57 37.56824 -113.64819 40051 ft 376 kts 220°
2026-05-04 17:57 37.52362 -113.68350 40054 ft 375 kts 220°
2026-05-04 17:58 37.47925 -113.71850 40046 ft 376 kts 220°
2026-05-04 17:58 37.43538 -113.75304 40042 ft 375 kts 221°
2026-05-04 17:59 37.39103 -113.78799 40041 ft 375 kts 220°
2026-05-04 18:00 37.32523 -113.83968 40023 ft 372 kts 220°
2026-05-04 18:00 37.28147 -113.87395 40016 ft 373 kts 220°
2026-05-04 18:01 37.23776 -113.90828 40004 ft 370 kts 220°
2026-05-04 18:01 37.19379 -113.94263 39985 ft 372 kts 220°
2026-05-04 18:02 37.12798 -113.99408 39959 ft 372 kts 221°
2026-05-04 18:02 37.08413 -114.02827 39947 ft 371 kts 221°
2026-05-04 18:03 37.04065 -114.06208 39948 ft 370 kts 220°
2026-05-04 18:03 36.99705 -114.09602 39946 ft 366 kts 220°
2026-05-04 18:04 36.95400 -114.12949 39939 ft 366 kts 221°
2026-05-04 18:05 36.88905 -114.17996 39944 ft 366 kts 219°
2026-05-04 18:05 36.84586 -114.21336 39933 ft 367 kts 220°
2026-05-04 18:06 36.78269 -114.26610 39926 ft 363 kts 225°
2026-05-04 18:06 36.74372 -114.30571 39923 ft 360 kts 228°
2026-05-04 18:07 36.70760 -114.34859 39913 ft 357 kts 232°
2026-05-04 18:07 36.67345 -114.39336 39915 ft 358 kts 232°
2026-05-04 18:08 36.63917 -114.43813 39915 ft 358 kts 231°
2026-05-04 18:08 36.60481 -114.48307 39910 ft 357 kts 231°
2026-05-04 18:09 36.53648 -114.57256 39900 ft 357 kts 232°
2026-05-04 18:10 36.50226 -114.61743 39894 ft 357 kts 232°
2026-05-04 18:10 36.46815 -114.66196 39899 ft 357 kts 232°
2026-05-04 18:11 36.43356 -114.70718 39901 ft 358 kts 231°
2026-05-04 18:11 36.39909 -114.75215 39900 ft 358 kts 231°
2026-05-04 18:12 36.36477 -114.79694 39907 ft 358 kts 231°
2026-05-04 18:12 36.32995 -114.84141 39908 ft 357 kts 231°
2026-05-04 18:13 36.29522 -114.88547 39898 ft 358 kts 229°
2026-05-04 18:14 36.24287 -114.95204 39896 ft 358 kts 229°
2026-05-04 18:14 36.20830 -114.99596 39901 ft 359 kts 230°
2026-05-04 18:15 36.13831 -115.08474 39911 ft 361 kts 231°
2026-05-04 18:16 36.10377 -115.12944 39917 ft 359 kts 232°
2026-05-04 18:16 36.07202 -115.17671 39921 ft 357 kts 235°
2026-05-04 18:17 36.02950 -115.25192 39930 ft 358 kts 238°
2026-05-04 18:18 35.98772 -115.32858 39946 ft 358 kts 239°
2026-05-04 18:18 35.96005 -115.37952 39958 ft 358 kts 238°
2026-05-04 18:19 35.91859 -115.45571 39981 ft 357 kts 238°
2026-05-04 18:19 35.89081 -115.50675 39982 ft 358 kts 238°
2026-05-04 18:20 35.86327 -115.55739 39975 ft 356 kts 238°
2026-05-04 18:20 35.83562 -115.60805 39970 ft 357 kts 238°
2026-05-04 18:21 35.80787 -115.65883 39964 ft 358 kts 238°
2026-05-04 18:21 35.78000 -115.70981 39960 ft 357 kts 237°
2026-05-04 18:22 35.75230 -115.76046 39960 ft 358 kts 237°
2026-05-04 18:22 35.72456 -115.81111 39962 ft 358 kts 238°
2026-05-04 18:23 35.69677 -115.86179 39956 ft 358 kts 237°
2026-05-04 18:23 35.66880 -115.91265 39960 ft 358 kts 238°
2026-05-04 18:24 35.64106 -115.96311 39954 ft 358 kts 237°
2026-05-04 18:24 35.61435 -116.01522 39947 ft 359 kts 240°
2026-05-04 18:25 35.58793 -116.06691 39938 ft 360 kts 239°
2026-05-04 18:25 35.56133 -116.11926 39940 ft 360 kts 239°
2026-05-04 18:26 35.53484 -116.17118 39942 ft 360 kts 239°
2026-05-04 18:26 35.50835 -116.22308 39945 ft 360 kts 239°
2026-05-04 18:27 35.48183 -116.27511 39944 ft 360 kts 238°
2026-05-04 18:27 35.45522 -116.32715 39943 ft 361 kts 239°
2026-05-04 18:28 35.42850 -116.37948 39943 ft 360 kts 238°
2026-05-04 18:28 35.40189 -116.43135 39949 ft 361 kts 238°
2026-05-04 18:29 35.37526 -116.48319 39947 ft 360 kts 239°
2026-05-04 18:29 35.34861 -116.53510 39953 ft 362 kts 238°
2026-05-04 18:30 35.30837 -116.61319 39910 ft 362 kts 239°
2026-05-04 18:30 35.29484 -116.63947 39537 ft 361 kts 239°
2026-05-04 18:31 35.28154 -116.66522 39003 ft 357 kts 237°
2026-05-04 18:31 35.26832 -116.69090 38232 ft 356 kts 238°
2026-05-04 18:31 35.25517 -116.71649 37372 ft 358 kts 237°
2026-05-04 18:31 35.24193 -116.74211 36505 ft 359 kts 236°
2026-05-04 18:32 35.22866 -116.76781 35712 ft 359 kts 236°
2026-05-04 18:32 35.21548 -116.79321 34980 ft 357 kts 236°
2026-05-04 18:32 35.20213 -116.81894 34210 ft 356 kts 236°
2026-05-04 18:32 35.18899 -116.84430 33465 ft 356 kts 236°
2026-05-04 18:33 35.17585 -116.86964 32760 ft 355 kts 236°
2026-05-04 18:33 35.16256 -116.89513 32027 ft 356 kts 236°
2026-05-04 18:33 35.14939 -116.92049 31282 ft 358 kts 236°
2026-05-04 18:33 35.13603 -116.94608 30508 ft 361 kts 236°
2026-05-04 18:34 35.12259 -116.97198 29725 ft 363 kts 235°
2026-05-04 18:34 35.10914 -116.99782 28955 ft 366 kts 235°
2026-05-04 18:34 35.09540 -117.02411 28210 ft 370 kts 236°
2026-05-04 18:34 35.08150 -117.05062 27413 ft 375 kts 236°
2026-05-04 18:35 35.06745 -117.07758 26678 ft 376 kts 237°
2026-05-04 18:35 35.05351 -117.10416 26143 ft 374 kts 237°
2026-05-04 18:35 35.03973 -117.13059 25600 ft 372 kts 237°
2026-05-04 18:35 35.02589 -117.15706 25083 ft 370 kts 237°
2026-05-04 18:36 35.01204 -117.18353 24564 ft 368 kts 238°
2026-05-04 18:36 34.99836 -117.20968 24080 ft 366 kts 237°
2026-05-04 18:36 34.98469 -117.23576 23610 ft 364 kts 238°
2026-05-04 18:36 34.97125 -117.26137 23162 ft 362 kts 238°
2026-05-04 18:37 34.95779 -117.28710 22681 ft 360 kts 238°
2026-05-04 18:37 34.94450 -117.31248 22228 ft 357 kts 238°
2026-05-04 18:37 34.93100 -117.33810 21780 ft 355 kts 237°
2026-05-04 18:37 34.91783 -117.36318 21354 ft 352 kts 237°
2026-05-04 18:38 34.90473 -117.38812 20926 ft 350 kts 238°
2026-05-04 18:38 34.89162 -117.41291 20491 ft 349 kts 238°
2026-05-04 18:38 34.87857 -117.43772 20058 ft 347 kts 238°
2026-05-04 18:38 34.86549 -117.46261 19620 ft 346 kts 237°
2026-05-04 18:39 34.85275 -117.48679 19200 ft 344 kts 237°
2026-05-04 18:39 34.83968 -117.51144 18768 ft 343 kts 237°
2026-05-04 18:39 34.82688 -117.53567 18357 ft 342 kts 238°
2026-05-04 18:39 34.81412 -117.55980 17945 ft 341 kts 237°
2026-05-04 18:40 34.80135 -117.58398 17506 ft 341 kts 237°
2026-05-04 18:40 34.78854 -117.60814 17049 ft 341 kts 237°
2026-05-04 18:40 34.77562 -117.63254 16578 ft 342 kts 237°
2026-05-04 18:40 34.76276 -117.65678 16106 ft 343 kts 237°
2026-05-04 18:41 34.74980 -117.68113 15613 ft 344 kts 237°
2026-05-04 18:41 34.73699 -117.70529 15138 ft 345 kts 237°
2026-05-04 18:41 34.72383 -117.73010 14655 ft 345 kts 237°
2026-05-04 18:41 34.71094 -117.75442 14569 ft 338 kts 237°
2026-05-04 18:42 34.69854 -117.77776 14431 ft 327 kts 237°
2026-05-04 18:42 34.68632 -117.80074 14269 ft 316 kts 237°
2026-05-04 18:42 34.67474 -117.82248 14147 ft 305 kts 237°
2026-05-04 18:42 34.66344 -117.84371 14002 ft 295 kts 238°
2026-05-04 18:43 34.65335 -117.86485 13943 ft 282 kts 242°
2026-05-04 18:43 34.64482 -117.88602 13689 ft 279 kts 245°
2026-05-04 18:43 34.63703 -117.90775 13279 ft 281 kts 246°
2026-05-04 18:43 34.62935 -117.92943 12905 ft 281 kts 246°
2026-05-04 18:44 34.62156 -117.95137 12535 ft 281 kts 246°
2026-05-04 18:44 34.61642 -117.96581 12302 ft 280 kts 246°
2026-05-04 18:44 34.60614 -117.99453 11832 ft 278 kts 246°
2026-05-04 18:44 34.59847 -118.01601 11473 ft 278 kts 246°
2026-05-04 18:45 34.59082 -118.03737 11124 ft 276 kts 246°
2026-05-04 18:45 34.58322 -118.05858 10797 ft 274 kts 246°
2026-05-04 18:45 34.57563 -118.07973 10466 ft 273 kts 246°
2026-05-04 18:45 34.56806 -118.10078 10053 ft 274 kts 246°
2026-05-04 18:46 34.56045 -118.12196 9678 ft 274 kts 246°
2026-05-04 18:46 34.55286 -118.14311 9315 ft 273 kts 246°
2026-05-04 18:46 34.54532 -118.16408 8991 ft 272 kts 246°
2026-05-04 18:46 34.53781 -118.18491 8699 ft 268 kts 246°
2026-05-04 18:47 34.53040 -118.20549 8367 ft 267 kts 247°
2026-05-04 18:47 34.52301 -118.22604 8032 ft 266 kts 247°
2026-05-04 18:47 34.51323 -118.24509 7954 ft 268 kts 225°
2026-05-04 18:47 34.49733 -118.25673 7955 ft 273 kts 200°
2026-05-04 18:48 34.47885 -118.26245 7967 ft 274 kts 197°
2026-05-04 18:48 34.46033 -118.26807 7963 ft 274 kts 197°
2026-05-04 18:48 34.44179 -118.27379 7958 ft 274 kts 197°
2026-05-04 18:48 34.42331 -118.27957 7957 ft 275 kts 197°
2026-05-04 18:49 34.40481 -118.28538 7958 ft 275 kts 197°
2026-05-04 18:49 34.38632 -118.29117 7961 ft 274 kts 197°
2026-05-04 18:49 34.36794 -118.29694 7959 ft 274 kts 197°
2026-05-04 18:49 34.34936 -118.30277 7959 ft 274 kts 197°
2026-05-04 18:50 34.33096 -118.30854 7939 ft 275 kts 196°
2026-05-04 18:50 34.31196 -118.31300 7636 ft 277 kts 191°
2026-05-04 18:50 34.29265 -118.31545 7295 ft 277 kts 188°
2026-05-04 18:50 34.27352 -118.31599 6977 ft 277 kts 180°
2026-05-04 18:51 34.25429 -118.31310 6671 ft 277 kts 173°
2026-05-04 18:51 34.23532 -118.30877 6368 ft 276 kts 172°
2026-05-04 18:51 34.21648 -118.30421 6072 ft 274 kts 172°
2026-05-04 18:51 34.19794 -118.29914 5746 ft 274 kts 167°
2026-05-04 18:52 34.17984 -118.29133 5403 ft 275 kts 162°
2026-05-04 18:52 34.16222 -118.28349 5207 ft 269 kts 162°
2026-05-04 18:52 34.14468 -118.27577 5016 ft 263 kts 162°
2026-05-04 18:52 34.12759 -118.26816 4747 ft 258 kts 162°
2026-05-04 18:53 34.11113 -118.26083 4453 ft 248 kts 162°
2026-05-04 18:53 34.09533 -118.25372 4201 ft 238 kts 162°
2026-05-04 18:53 34.07997 -118.24685 3996 ft 231 kts 163°
2026-05-04 18:53 34.06469 -118.24156 3654 ft 228 kts 168°
2026-05-04 18:54 34.04917 -118.23700 3337 ft 226 kts 170°
2026-05-04 18:54 34.03409 -118.23258 3089 ft 220 kts 169°
2026-05-04 18:54 34.01962 -118.22841 2974 ft 208 kts 169°
2026-05-04 18:54 34.00599 -118.22450 2956 ft 191 kts 169°
2026-05-04 18:55 33.99315 -118.22073 2958 ft 189 kts 169°
2026-05-04 18:55 33.97098 -118.22968 2877 ft 172 kts 243°
2026-05-04 18:55 33.96757 -118.24270 2661 ft 160 kts 262°
2026-05-04 18:56 33.96645 -118.25602 2459 ft 159 kts 265°
2026-05-04 18:56 33.96557 -118.26930 2259 ft 159 kts 265°
2026-05-04 18:56 33.96449 -118.28245 2057 ft 159 kts 263°
2026-05-04 18:56 33.96319 -118.29560 1852 ft 158 kts 263°
2026-05-04 18:57 33.96183 -118.30849 1637 ft 153 kts 263°
2026-05-04 18:57 33.96047 -118.32128 1437 ft 153 kts 262°
2026-05-04 18:57 33.95914 -118.33393 1243 ft 151 kts 262°
2026-05-04 18:57 33.95785 -118.34635 1047 ft 150 kts 262°
2026-05-04 18:58 33.95656 -118.35878 852 ft 149 kts 262°
2026-05-04 18:58 33.95525 -118.37112 643 ft 149 kts 262°
2026-05-04 18:58 33.95397 -118.38353 440 ft 147 kts 262°
2026-05-04 18:58 33.95285 -118.39562 255 ft 145 kts 261°
2026-05-04 18:59 33.95157 -118.40747 134 ft 133 kts 261°
2026-05-04 18:59 33.95077 -118.41508 133 ft 53 kts 263°
2026-05-04 18:59 33.95036 -118.41898 131 ft 40 kts 262°
2026-05-04 18:59 33.94984 -118.42121 129 ft 18 kts 239°
2026-05-04 19:00 33.94916 -118.42229 128 ft 14 kts 225°
2026-05-04 19:00 33.94829 -118.42283 127 ft 15 kts 182°
2026-05-04 19:00 33.94731 -118.42276 127 ft 11 kts 175°
2026-05-04 19:00 33.94690 -118.42214 127 ft 12 kts 91°
2026-05-04 19:01 33.94700 -118.42104 128 ft 14 kts 84°
2026-05-04 19:01 33.94709 -118.41981 129 ft 14 kts 85°
2026-05-04 19:01 33.94713 -118.41866 130 ft 11 kts 106°
2026-05-04 19:01 33.94638 -118.41815 130 ft 14 kts 169°
2026-05-04 19:02 33.94527 -118.41801 130 ft 17 kts 174°
2026-05-04 19:02 33.94423 -118.41787 129 ft 10 kts 173°
2026-05-04 19:02 33.94367 -118.41734 130 ft 10 kts 97°
2026-05-04 19:02 33.94353 -118.41680 130 ft 6 kts 120°
2026-05-04 19:03 33.94347 -118.41629 130 ft 4 kts 82°
2026-05-04 19:03 33.94349 -118.41612 130 ft 1 kts 83°
2026-05-04 19:03 33.94350 -118.41594 131 ft 1 kts 83°
2026-05-04 19:03 33.94352 -118.41582 131 ft 0 kts 83°